This demonstration page uses our WeatherBlox Daily Observations layout. Learn more.

Left ArrowRight Arrow

Hourly Observations for July 11, 2015

Temp ( °F °C ) Dew Point ( °F °C ) Humidity (%) Winds ( mph kmh ) Pressure ( in mb ) Visibility ( mi km ) Precip ( " mm )
12:52 am 00:52 Clear 76 24.4 71 21.7 85 85 S 8 13 30.04 1017 10 16 0.00 0.00
1:52 am 01:52 Clear 76 24.4 70 21.1 82 82 S 10 17 30.04 1017 10 16 0.00 0.00
2:52 am 02:52 Clear 74 23.3 70 21.1 88 88 S 7 11 30.04 1017 10 16 0.00 0.00
3:52 am 03:52 Clear 74 23.3 70 21.1 88 88 S 6 9 30.05 1018 10 16 0.00 0.00
4:52 am 04:52 Clear 73 22.8 70 21.1 90 90 S 7 11 30.05 1018 10 16 0.00 0.00
5:52 am 05:52 Clear 73 22.8 69 20.6 87 87 S 9 15 30.06 1018 10 16 0.00 0.00
6:52 am 06:52 Sunny 73 22.8 70 21.1 90 90 SSE 8 13 30.09 1019 10 16 0.00 0.00
7:52 am 07:52 Sunny 76 24.4 70 21.1 82 82 S 10 17 30.10 1019 10 16 0.00 0.00
8:52 am 08:52 Sunny 80 26.7 71 21.7 74 74 SSW 14 22 30.10 1019 10 16 0.00 0.00
9:52 am 09:52 Sunny 82 27.8 71 21.7 69 69 SW 13 20 30.10 1019 10 16 0.00 0.00
10:52 am 10:52 Sunny 84 28.9 71 21.7 65 65 SW 16 26 30.09 1019 10 16 0.00 0.00
11:52 am 11:52 Sunny 86 30 70 21.1 59 59 SSW 17 28 30.09 1019 10 16 0.00 0.00
12:52 pm 12:52 Sunny 87 30.6 72 22.2 61 61 SSW 15 24 30.08 1019 10 16 0.00 0.00
1:52 pm 13:52 Partly Cloudy 88 31.1 71 21.7 57 57 WSW 14 22 30.08 1019 10 16 0.00 0.00
2:52 pm 14:52 Partly Cloudy 88 31.1 72 22.2 59 59 SW 13 20 30.06 1018 10 16 0.00 0.00
3:52 pm 15:52 Partly Cloudy 89 31.7 71 21.7 55 55 SW 14 22 30.06 1018 10 16 0.00 0.00
4:52 pm 16:52 Partly Cloudy 87 30.6 71 21.7 59 59 S 12 19 30.04 1017 10 16 0.00 0.00
5:52 pm 17:52 Partly Cloudy 87 30.6 72 22.2 61 61 SSW 10 17 30.03 1017 10 16 0.00 0.00
6:52 pm 18:52 Mostly Sunny 86 30 72 22.2 63 63 S 9 15 30.02 1017 10 16 0.00 0.00
7:52 pm 19:52 Sunny 82 27.8 71 21.7 69 69 S 8 13 30.01 1016 10 16 0.00 0.00
8:52 pm 20:52 Clear 79 26.1 71 21.7 77 77 S 7 11 30.01 1016 10 16 0.00 0.00
9:52 pm 21:52 Clear 77 25 72 22.2 85 85 S 8 13 30.02 1017 10 16 0.00 0.00
10:52 pm 22:52 Clear 76 24.4 71 21.7 85 85 S 5 7 30.04 1017 10 16 0.00 0.00
11:52 pm 23:52 Clear 75 23.9 70 21.1 84 84 S 6 9 30.02 1017 10 16 0.00 0.00

Powered by AerisWeather